Location: Praha
(50.0830°N, 14.4670°E)
Time: 16:40:13
(UTC+01:00)

ISS - Pass Details

Date: 08 January 2020
Orbit: 415 x 421 km, 51.6° (Epoch: 18 January)

Event Time Altitude Azimuth Distance (km) Brightness Sun altitude
Exits shadow 06:25:54 18° 240° (WSW) 1,085 -2.1 -14.3°
Maximum altitude 06:26:47 20° 218° (SW) 1,015 -2.0 -14.1°
Drops below altitude 10° 06:29:19 10° 168° (SSE) 1,483 -0.6 -13.7°
Sets 06:31:45 0° 151° (SSE) 2,342 0.8 -13.4°
